Retour au catalogue

STARLINK-11454

ActifCommunicationsVLEO
NORAD 62059·PAYLOAD·🇺🇸 United States

Lancé Nov 24, 2024 depuis Vandenberg Space Force Base

Loading…

Prochains Passages (prochaines 24 heures)

TLE

FraisSource: CelesTrak SupGP

Époque: Sep 14, 2026, 22:45 UTC

1 62059C 24217C   26257.94840278  .00050124  00000+0  41262-3 0  2578
2 62059  53.1572 218.4103 0001081  99.0761  21.1766 15.69699823    10

Suivez STARLINK-11454 en temps réel avec AllMySat

Download on the App Store